When you browse on this site, cookies collect data to enhance your experience and personalize the content and advertising you see.
Visit our Privacy Policy to learn more. By continuing to use the site, you agree to this use of cookies and data.
  • In Latvia
  • List of Countries
  • For 7 days
  • Water Temperature
  • Satellite Maps
  • Weather Map
  • Weather Widgets
  • user-avatar
    Login

    Hourly Weather Igls

    Today, 21 April, Sunday

    Time Temperature Precipitation Wind Pressure Humidity
    00:00 +8°C° 0 mm 2 mps 689 mmHg 56%
    01:00 +7°C° 0 mm 2 mps 689 mmHg 55%
    02:00 +6°C° 0 mm 2 mps 689 mmHg 56%
    03:00 +6°C° 0 mm 2 mps 688 mmHg 57%
    04:00 +6°C° 0 mm 2 mps 688 mmHg 58%
    05:00 +7°C° 0 mm 2 mps 688 mmHg 59%
    06:00 +8°C° 0 mm 2 mps 688 mmHg 60%
    07:00 +9°C° 0 mm 2 mps 688 mmHg 60%
    08:00 +13°C° 0 mm 2 mps 688 mmHg 57%
    09:00 +15°C° 0 mm 2 mps 688 mmHg 54%
    10:00 +19°C° 0 mm 1 mps 688 mmHg 50%
    11:00 +20°C° 0 mm 1 mps 688 mmHg 45%
    12:00 +20°C° 0 mm 2 mps 687 mmHg 39%
    13:00 +21°C° 0 mm 2 mps 687 mmHg 34%
    14:00 +21°C° 0 mm 2 mps 687 mmHg 34%
    15:00 +20°C° 0 mm 2 mps 686 mmHg 33%
    16:00 +20°C° 0 mm 2 mps 686 mmHg 33%
    17:00 +18°C° 0 mm 2 mps 685 mmHg 40%
    18:00 +15°C° 0 mm 2 mps 685 mmHg 48%
    19:00 +13°C° 0 mm 2 mps 684 mmHg 55%
    20:00 +10°C° 0 mm 2 mps 684 mmHg 56%
    21:00 +9°C° 0 mm 2 mps 684 mmHg 57%
    22:00 +8°C° 0 mm 3 mps 684 mmHg 58%
    23:00 +8°C° 0 mm 3 mps 684 mmHg 61%

    Tomorrow, 22 April, Monday

    Time Temperature Precipitation Wind Pressure Humidity
    00:00 +7°C° 0 mm 3 mps 684 mmHg 64%
    01:00 +7°C° 0 mm 3 mps 684 mmHg 67%
    02:00 +5°C° 0 mm 3 mps 683 mmHg 70%
    03:00 +5°C° 0 mm 3 mps 683 mmHg 73%
    04:00 +5°C° 0 mm 3 mps 683 mmHg 76%
    05:00 +7°C° 0 mm 3 mps 682 mmHg 72%
    06:00 +8°C° 0 mm 3 mps 682 mmHg 69%
    07:00 +10°C° 0 mm 3 mps 682 mmHg 66%
    08:00 +13°C° 0 mm 2 mps 682 mmHg 56%
    09:00 +16°C° 0 mm 2 mps 682 mmHg 46%
    10:00 +18°C° 0 mm 2 mps 682 mmHg 36%
    11:00 +19°C° 0 mm 2 mps 681 mmHg 33%
    12:00 +20°C° 0 mm 2 mps 681 mmHg 30%
    13:00 +21°C° 0 mm 2 mps 680 mmHg 27%
    14:00 +21°C° 0 mm 2 mps 680 mmHg 28%
    15:00 +21°C° 0 mm 2 mps 679 mmHg 29%
    16:00 +21°C° 0 mm 2 mps 679 mmHg 29%
    17:00 +18°C° 0 mm 2 mps 678 mmHg 39%
    18:00 +16°C° 0 mm 2 mps 677 mmHg 49%
    19:00 +13°C° 0 mm 2 mps 676 mmHg 59%
    20:00 +12°C° 0 mm 2 mps 676 mmHg 64%
    21:00 +10°C° 0 mm 3 mps 676 mmHg 70%
    22:00 +9°C° 0 mm 3 mps 676 mmHg 75%
    23:00 +9°C° 0 mm 3 mps 676 mmHg 76%

    Day after tomorrow, 23 April, Tuesday

    Time Temperature Precipitation Wind Pressure Humidity
    00:00 +9°C° 0 mm 3 mps 675 mmHg 77%
    01:00 +8°C° 0 mm 3 mps 675 mmHg 78%
    02:00 +8°C° 0 mm 3 mps 675 mmHg 78%
    03:00 +8°C° 0 mm 3 mps 674 mmHg 77%
    04:00 +7°C° 0 mm 3 mps 674 mmHg 77%
    05:00 +8°C° 0 mm 3 mps 674 mmHg 74%
    06:00 +9°C° 0 mm 3 mps 674 mmHg 71%
    07:00 +10°C° 0 mm 3 mps 673 mmHg 69%
    08:00 +11°C° 0.1 mm 3 mps 674 mmHg 65%
    09:00 +13°C° 0.1 mm 3 mps 674 mmHg 61%
    10:00 +16°C° 0.1 mm 2 mps 674 mmHg 57%
    11:00 +17°C° 0.1 mm 2 mps 674 mmHg 54%
    12:00 +17°C° 0.1 mm 2 mps 674 mmHg 51%
    13:00 +18°C° 0.1 mm 2 mps 674 mmHg 48%
    14:00 +18°C° 0.1 mm 2 mps 674 mmHg 50%
    15:00 +17°C° 0.1 mm 2 mps 674 mmHg 53%
    16:00 +17°C° 0.1 mm 2 mps 674 mmHg 55%
    17:00 +15°C° 0 mm 2 mps 674 mmHg 61%
    18:00 +14°C° 0 mm 2 mps 674 mmHg 67%
    19:00 +13°C° 0 mm 2 mps 674 mmHg 73%
    20:00 +12°C° 0 mm 2 mps 674 mmHg 76%
    21:00 +10°C° 0 mm 3 mps 675 mmHg 79%
    22:00 +9°C° 0 mm 3 mps 675 mmHg 82%
    23:00 +9°C° 0 mm 3 mps 675 mmHg 83%

    24 April, Wednesday

    Time Temperature Precipitation Wind Pressure Humidity
    00:00 +9°C° 0 mm 3 mps 676 mmHg 84%
    01:00 +9°C° 0 mm 3 mps 676 mmHg 86%
    02:00 +9°C° 0 mm 3 mps 676 mmHg 86%
    03:00 +9°C° 0 mm 3 mps 677 mmHg 86%
    04:00 +8°C° 0 mm 3 mps 677 mmHg 86%
    05:00 +9°C° 0 mm 3 mps 677 mmHg 83%
    06:00 +10°C° 0 mm 3 mps 678 mmHg 79%
    07:00 +11°C° 0 mm 3 mps 678 mmHg 76%
    08:00 +13°C° 0 mm 3 mps 679 mmHg 68%
    09:00 +16°C° 0 mm 3 mps 680 mmHg 60%
    10:00 +18°C° 0 mm 3 mps 680 mmHg 53%
    11:00 +18°C° 0 mm 3 mps 680 mmHg 51%
    12:00 +19°C° 0 mm 4 mps 680 mmHg 50%
    13:00 +19°C° 0 mm 4 mps 680 mmHg 48%
    14:00 +19°C° 0 mm 4 mps 680 mmHg 49%
    15:00 +18°C° 0 mm 4 mps 680 mmHg 50%
    16:00 +18°C° 0 mm 4 mps 680 mmHg 51%
    17:00 +17°C° 0 mm 4 mps 680 mmHg 58%
    18:00 +14°C° 0 mm 4 mps 680 mmHg 64%
    19:00 +13°C° 0 mm 4 mps 680 mmHg 70%
    20:00 +12°C° 0 mm 4 mps 680 mmHg 73%
    21:00 +11°C° 0 mm 4 mps 681 mmHg 76%
    22:00 +10°C° 0 mm 4 mps 681 mmHg 79%
    23:00 +10°C° 0 mm 3 mps 682 mmHg 82%

    25 April, Thursday

    Time Temperature Precipitation Wind Pressure Humidity
    00:00 +10°C° 0 mm 3 mps 683 mmHg 86%
    01:00 +9°C° 0 mm 2 mps 683 mmHg 89%
    02:00 +9°C° 0 mm 2 mps 683 mmHg 89%
    03:00 +9°C° 0 mm 2 mps 683 mmHg 89%
    04:00 +9°C° 0 mm 2 mps 683 mmHg 89%
    05:00 +10°C° 0 mm 3 mps 683 mmHg 84%
    06:00 +11°C° 0 mm 3 mps 683 mmHg 80%
    07:00 +12°C° 0 mm 4 mps 683 mmHg 75%
    08:00 +13°C° 0 mm 4 mps 684 mmHg 68%
    09:00 +15°C° 0 mm 4 mps 684 mmHg 61%
    10:00 +18°C° 0 mm 4 mps 684 mmHg 54%
    11:00 +18°C° 0 mm 4 mps 684 mmHg 52%
    12:00 +19°C° 0 mm 4 mps 683 mmHg 49%
    13:00 +20°C° 0 mm 4 mps 683 mmHg 46%
    14:00 +19°C° 0 mm 4 mps 683 mmHg 46%
    15:00 +19°C° 0 mm 4 mps 683 mmHg 46%
    16:00 +19°C° 0 mm 4 mps 683 mmHg 47%
    17:00 +17°C° 0 mm 4 mps 682 mmHg 54%
    18:00 +16°C° 0 mm 3 mps 682 mmHg 62%
    19:00 +13°C° 0 mm 3 mps 682 mmHg 69%
    20:00 +13°C° 0 mm 3 mps 682 mmHg 73%
    21:00 +12°C° 0 mm 3 mps 682 mmHg 76%
    22:00 +11°C° 0 mm 3 mps 683 mmHg 80%
    23:00 +11°C° 0 mm 3 mps 683 mmHg 81%

    26 April, Friday

    Time Temperature Precipitation Wind Pressure Humidity
    00:00 +10°C° 0 mm 3 mps 683 mmHg 83%
    01:00 +10°C° 0 mm 2 mps 683 mmHg 85%
    02:00 +9°C° 0 mm 2 mps 683 mmHg 87%
    03:00 +9°C° 0 mm 2 mps 682 mmHg 88%
    04:00 +8°C° 0 mm 2 mps 682 mmHg 90%
    05:00 +9°C° 0 mm 2 mps 682 mmHg 86%
    06:00 +10°C° 0 mm 2 mps 683 mmHg 82%
    07:00 +12°C° 0 mm 2 mps 683 mmHg 78%
    08:00 +13°C° 0.1 mm 2 mps 683 mmHg 72%
    09:00 +15°C° 0.1 mm 2 mps 684 mmHg 67%
    10:00 +16°C° 0.1 mm 2 mps 684 mmHg 61%
    11:00 +14°C° 0.7 mm 2 mps 684 mmHg 68%
    12:00 +12°C° 0.7 mm 2 mps 684 mmHg 75%
    13:00 +10°C° 0.7 mm 3 mps 684 mmHg 82%
    14:00 +8°C° 2.1 mm 3 mps 684 mmHg 85%
    15:00 +7°C° 2.1 mm 3 mps 684 mmHg 89%
    16:00 +5°C° 2.1 mm 2 mps 684 mmHg 92%
    17:00 +5°C° 1.4 mm 2 mps 685 mmHg 93%
    18:00 +4°C° 1.4 mm 2 mps 685 mmHg 94%
    19:00 +4°C° 1.4 mm 2 mps 686 mmHg 94%
    20:00 +4°C° 0.6 mm 2 mps 686 mmHg 94%
    21:00 +3°C° 0.6 mm 2 mps 686 mmHg 94%
    22:00 +3°C° 0.6 mm 2 mps 687 mmHg 94%
    23:00 +3°C° 0.3 mm 2 mps 687 mmHg 94%
    Show more